Location: Eldred Sherwood Park Lake Dam
(42.9416°N, 93.5655°W)
Time: 13:00:30
(UTC+00:00)

Explorer 11/Cluster Stage 4 - Pass Details

Date: 15 December 2025
Orbit: 463 x 1180 km, 28.8° (Epoch: 13 January)

Event Time Altitude Azimuth Distance (km) Brightness Sun altitude
Rises 02:08:12 0° 244° (WSW) 3,969 10.9 -37.1°
Reaches altitude 10° 02:11:43 10° 231° (SW) 2,930 10.0 -37.7°
Enters shadow 02:15:07 21° 207° (SSW) 2,158 8.9 -38.3°
